Regional Weather Roundup
Issued by NWS Portland, ME

Home | Current Version | Previous Version | Text Only | Print | Product List | Glossary On
Versions: 1 2 3 4 5 6 7 8 9 10 11 12 13 14 15 16 17 18 19 20 21 22 23 24 25 26 27 28 29 30 31 32 33 34 35 36 37 38 39 40 41 42 43 44 45 46 47 48 49 50
000
ASUS41 KGYX 040310
RWRGYX
WEATHER ROUNDUP FOR MAINE AND NEW HAMPSHIRE
NATIONAL WEATHER SERVICE GRAY ME
1000 PM EST TUE MAR 03 2015

MEZ002-005-006-010-012-015-018-020-021-024-026-027-029-040400-
MAINE

CITY           SKY/WX    TMP DP  RH WIND       PRES   REMARKS
PORTLAND       LGT SNOW  27  23  85 S12G25    29.94F VSB 1   WCI  17
SANFORD        CLOUDY    23  16  74 S6        29.93F
BAR HARBOR     CLOUDY    28  27  93 S22G28    29.98F WCI  15
WISCASSET      LGT SNOW  27  25  92 S12G20    29.98F VSB 3/4 WCI  17
ROCKLAND       CLOUDY    28  25  86 S18G25    29.98F WCI  16
FRYEBURG       LGT SNOW  22  19  89 S3        29.86F VSB 3/4
LEWISTONAUBURN CLOUDY    25  21  86 S14G21    29.90F WCI  13
AUGUSTA        LGT SNOW  24  21  88 S9        29.90F VSB 3/4
WATERVILLE     CLOUDY    23  18  80 S6        29.87F
BANGOR         LGT SNOW  25  21  85 S16G22    29.95F VSB 1   WCI  12
GREENVILLE       N/A     16  14  92 SE10G21   29.73F WCI   4
MILLINOCKET    LGT SNOW  20  14  77 SE6       29.89F VSB 3/4
HOULTON        CLOUDY    19  -4  36 S10G17    29.90F WCI   7
PRESQUE ISLE   CLOUDY    18 -15  23 SE12      29.85F WCI   5
FRENCHVILLE    CLOUDY    15  -4  42 SE16      29.76F WCI  -1
CARIBOU        CLOUDY    18  -3  39 S15       29.83F WCI   4
$$

NHZ002-005-008-009-011-012-014-040400-
NEW HAMPSHIRE

CITY           SKY/WX    TMP DP  RH WIND       PRES   REMARKS
PORTSMOUTH     LGT SNOW  24  21  88 S8        29.92F VSB 1
ROCHESTER      LGT SNOW  23  20  88 S7        29.92F VSB 3/4
NASHUA         LGT SNOW  24  22  92 CALM      29.92F FOG
MANCHESTER     LGT SNOW  24  22  91 S8        29.89F FOG
CONCORD        LGT SNOW  23  20  88 S8        29.88F FOG
LACONIA        CLOUDY    23  18  80 S6        29.84F
PLYMOUTH       LGT SNOW  23  23 100 E6        29.84F
BERLIN         LGT SNOW  20  15  81 SE7       29.72F
WHITEFIELD     LGT SNOW  24  19  81 CALM      29.70F
JAFFREY        LGT SNOW  22  19  89 S9        29.82F FOG
KEENE          CLOUDY    23  19  86 S10       29.85F WCI  12
LEBANON        LGT SNOW  24  18  77 S15       29.79F WCI  11
MT WASHINGTON  SNOW       3   3 100 SW44G61     N/A  VSB 0   WCI -25
$$

VTZ005-007-008-040400-
VERMONT

CITY           SKY/WX    TMP DP  RH WIND       PRES   REMARKS
ST JOHNSBURY     N/A     22  19  89 MISG      29.72F
MONTPELIER     LGT SNOW  20  15  81 S14G25    29.73F WCI   7
BURLINGTON     LGT SNOW  25  19  78 S22G31    29.68F WCI  10
$$

MAZ007-012-024-CTZ003-RIZ002-NYZ038-NYZ072-040400-
SOUTHERN NEW ENGLAND AND NY

CITY           SKY/WX    TMP DP  RH WIND       PRES   REMARKS
BOSTON         LGT SNOW  27  25  93 SE12      29.94F VSB 3/4 WCI  16
WORCESTER      LGT SNOW  22  19  89 S15       29.84F VSB 1   WCI   9
NANTUCKET      LGT SNOW  33  31  92 S18       30.02F FOG
PROVIDENCE     LGT SNOW  32  30  92 S13       29.97F VSB 1
HARTFORD       FRZ RAIN  28  24  85 S9        29.89F FOG
ALBANY         FRZ RAIN  27  21  78 S20G30    29.79F WCI  13
NEW YORK CITY  LGT RAIN  34  31  88 S9        29.94F FOG
$$

ANZ081-ANZ082-ANZ150-NHZ014-MEZ023>029-040400-
COASTAL MARINE OBSERVATIONS

STATION/POSITION TIME  TEMP    WIND        PRES    WAVE
                       AIR SEA DIR/SP/G            HT/PER
                 (UTC) (F)     (DEG/KT/KT) (MB)    (FT/S)
MOUNT DESERT ROC 0300   31                 1015.6F
MATINICUS ROCK   0300   29     210/ 34/ 37 1015.3F
WELLS            0200   25     210/ 15/ 18 1015.2F
ISLE OF SHOALS   0300   29     180/ 23/ 27 1012.9F
JEFFREYS LEDGE   0221      41                N/A     6/ 6
CASHES LEDGE BUO 0250   30 39              1015.3F   6/ 5
$$

.............KEY..............
   WCI - WIND CHILL
   TC  - TEMPERATURE IN CELSIUS
   VSB - VISIBILITY IN MILES
   HX  - HEAT INDEX
   FAIR- INDICATES FEW OR NO CLOUDS BELOW 12,000 FT, WITH NO
         SIGNIFICANT WEATHER AND/OR OBSTRUCTIONS TO VISIBILITY.




USA.gov is the U.S. government's official web portal to all federal, state and local government web resources and services.